Regional Weather Roundup
Issued by NWS

Home | Current Version | Previous Version | Graphics & Text | Print | Product List | Glossary Off
Versions: 1 2 3 4 5 6 7 8 9 10 11 12 13 14 15 16 17 18 19 20 21 22 23 24 25 26 27 28 29 30 31 32 33 34 35 36 37 38 39 40 41 42 43 44 45 46 47 48 49 50

000
ASUS43 KMKX 240621
RWRWI

WISCONSIN REGIONAL WEATHER ROUNDUP
NATIONAL WEATHER SERVICE MILWAUKEE/SULLIVAN WI
100 AM CDT SUN SEP 24 2017

NOTE: "FAIR" INDICATES FEW OR NO CLOUDS BELOW 12,000 FEET WITH NO
SIGNIFICANT WEATHER AND/OR OBSTRUCTIONS TO VISIBILITY.

WIZ001-002-006>008-014>016-023>028-240700-
NORTHWEST WISCONSIN

CITY           SKY/WX    TMP DP  RH WIND       PRES   REMARKS
SUPERIOR ARPT  CLOUDY    65  64  97 CALM      29.97R
6HR MIN TEMP:  65; 6HR MAX TEMP:  69;

ASHLAND        CLOUDY    68  66  93 NE3       29.98S
6HR MIN TEMP:  68; 6HR MAX TEMP:  78;

HAYWARD        MOCLDY    75  65  70 VRB3      29.99R
6HR MIN TEMP:  70; 6HR MAX TEMP:  78;

SIREN          MOCLDY    69  68  94 CALM      29.97R
6HR MIN TEMP:  69; 6HR MAX TEMP:  78;

CUMBERLAND     PTCLDY    68  63  83 S6        29.99R
RICE LAKE      PTCLDY    70  65  85 SE3       30.00S
6HR MIN TEMP:  70; 6HR MAX TEMP:  79;

CHETEK         PTCLDY    72  67  84 CALM      30.00R
6HR MIN TEMP:  72; 6HR MAX TEMP:  79;

LADYSMITH      CLOUDY    74  65  73 SE5       30.03R
6HR MIN TEMP:  73; 6HR MAX TEMP:  80;

EAU CLAIRE     PTCLDY    74  65  73 S7        29.98S
6HR MIN TEMP:  72; 6HR MAX TEMP:  82;

MENOMONIE      CLEAR     70  66  88 SE7       29.99R
6HR MIN TEMP:  69; 6HR MAX TEMP:  80;

NEW RICHMOND   PTCLDY    73  62  68 S8        29.97S
6HR MIN TEMP:  73; 6HR MAX TEMP:  78;

OSCEOLA        PTCLDY    71  65  83 CALM      29.99R
6HR MIN TEMP:  71; 6HR MAX TEMP:  79;

$$

WIZ003>005-009-010-017-018-240700-
NORTH CENTRAL WISCONSIN

CITY           SKY/WX    TMP DP  RH WIND       PRES   REMARKS
MANITOWISH WTR NOT AVBL
ARBOR VITAE    PTCLDY    72  66  82 S5        30.05R
6HR MIN TEMP:  69; 6HR MAX TEMP:  77;

WOODRUFF       PTCLDY    72  66  82 S5        30.05R
6HR MIN TEMP:  69; 6HR MAX TEMP:  77;

RHINELANDER    CLEAR     70  65  84 S3        30.07R
6HR MIN TEMP:  68; 6HR MAX TEMP:  78;

EAGLE RIVER    PTCLDY    68  65  90 CALM      30.06R
6HR MIN TEMP:  65; 6HR MAX TEMP:  76;

LAND O LAKES   MOCLDY    66  65  96 CALM      30.08R
6HR MIN TEMP:  63; 6HR MAX TEMP:  76;

PHILLIPS       PTCLDY    72  65  79 S8        30.03R
6HR MIN TEMP:  68; 6HR MAX TEMP:  77;

TOMAHAWK       CLEAR     64  62  95 CALM      30.06R
6HR MIN TEMP:  64; 6HR MAX TEMP:  71;

MEDFORD        CLOUDY    67  63  86 S6        30.05S
6HR MIN TEMP:  66; 6HR MAX TEMP:  75;

MERRILL        CLEAR     63  63 100 CALM      30.06R
6HR MIN TEMP:  61; 6HR MAX TEMP:  80;

$$

WIZ029-030-035-036-043>047-240700-
CENTRAL WISCONSIN

CITY           SKY/WX    TMP DP  RH WIND       PRES   REMARKS
WAUSAU         CLEAR     70  64  81 SE5       30.04S
6HR MIN TEMP:  67; 6HR MAX TEMP:  80;

MOSINEE        CLEAR     68  63  83 SE6       30.07R
MARSHFIELD     CLEAR     68  62  81 S5        30.04S
6HR MIN TEMP:  68; 6HR MAX TEMP:  78;

STEVENS POINT  PTCLDY    65  64  98 CALM      30.06S
6HR MIN TEMP:  64; 6HR MAX TEMP:  75;

WAUPACA        CLEAR     69  67  96 CALM      30.06S
6HR MIN TEMP:  69; 6HR MAX TEMP:  80;

WAUTOMA        CLEAR     65  64  97 CALM      30.06
6HR MIN TEMP:  65; 6HR MAX TEMP:  78;

WISC RAPIDS    CLEAR     72  63  73 S5        30.06R
6HR MIN TEMP:  70; 6HR MAX TEMP:  78;

CAMP DOUGLAS   CLEAR     67  66  99 SE6       30.03S
6HR MIN TEMP:  63; 6HR MAX TEMP:  78; 6HR PCP: TRACE;

$$

WIZ011>013-019>022-031-037>040-048>050-240700-
NORTHEAST WISCONSIN

CITY           SKY/WX    TMP DP  RH WIND       PRES   REMARKS
ANTIGO         CLEAR     68  65  91 S6        30.08S
6HR MIN TEMP:  67; 6HR MAX TEMP:  74;

SHAWANO        CLEAR     73  66  80 CALM      30.05S
6HR MIN TEMP:  72; 6HR MAX TEMP:  80;

OCONTO         PTCLDY    68  65  90 CALM      30.05R
6HR MIN TEMP:  66; 6HR MAX TEMP:  78;

STURGEON BAY   CLEAR     74  65  73 S8        30.07S
6HR MIN TEMP:  73; 6HR MAX TEMP:  77;

GREEN BAY      CLEAR     71  67  87 S5        30.06S
6HR MIN TEMP:  70; 6HR MAX TEMP:  80;

MANITOWOC      CLEAR     64  64 100 CALM      30.07S FOG
APPLETON       CLEAR     72  63  73 S3        30.05S
CLINTONVILLE   CLEAR     68  64  88 SE3       30.06S
OSHKOSH        CLEAR     69  65  86 S6        30.06S
6HR MIN TEMP:  69; 6HR MAX TEMP:  81;

$$

WIZ032>034-041-042-053>061-240700-
SOUTHWEST WISCONSIN

CITY           SKY/WX    TMP DP  RH WIND       PRES   REMARKS
LA CROSSE      CLEAR     73  67  81 SW7       29.99S
6HR MIN TEMP:  72; 6HR MAX TEMP:  87;

SPARTA         CLEAR     64  62  93 CALM      30.03R
6HR MIN TEMP:  63; 6HR MAX TEMP:  79;

VIROQUA        CLEAR     73  64  73 SE7       30.05S
6HR MIN TEMP:  73; 6HR MAX TEMP:  81;

BOSCOBEL       CLEAR     65  64  97 CALM      30.03R FOG
6HR MIN TEMP:  65; 6HR MAX TEMP:  83;

PRAIRIE DU CHI CLEAR     71  62  73 E3        30.01S
6HR MIN TEMP:  71; 6HR MAX TEMP:  85;

PLATTEVILLE    CLEAR     72  64  77 E6        30.05S
6HR MIN TEMP:  72; 6HR MAX TEMP:  83;

$$

WIZ056-057-062-063-064-067-068-240700-
SOUTH CENTRAL WISCONSIN

CITY           SKY/WX    TMP DP  RH WIND       PRES   REMARKS
REEDSBURG      CLEAR     65  65 100 CALM      30.05R
6HR MIN TEMP:  65; 6HR MAX TEMP:  81;

BARABOO/DELLS  CLEAR     69  63  79 S3        30.06R
6HR MIN TEMP:  69; 6HR MAX TEMP:  80;

LONE ROCK      CLEAR     66  64  93 E3        30.04R
6HR MIN TEMP:  66; 6HR MAX TEMP:  81;

MINERAL POINT  CLEAR     73  64  73 SE5       30.06S
MADISON        PTCLDY    75  66  73 S6        30.05S
6HR MIN TEMP:  71; 6HR MAX TEMP:  80;

MIDDLETON      CLEAR     74  64  71 CALM      30.06S
6HR MIN TEMP:  68; 6HR MAX TEMP:  85;

WATERTOWN      CLEAR     69  66  91 CALM      30.07R
6HR MIN TEMP:  69; 6HR MAX TEMP:  80;

MONROE         CLEAR     73  61  64 SE7       30.07R
JANESVILLE     CLEAR     72  64  78 E3        30.06R
$$

WIZ051-052-058>065-066-070>072-240700-
SOUTHEAST WISCONSIN

CITY           SKY/WX    TMP DP  RH WIND       PRES   REMARKS
MILWAUKEE      CLEAR     74  67  78 S6        30.07S
6HR MIN TEMP:  74; 6HR MAX TEMP:  81;

WAUKESHA       CLEAR     70  63  78 S5        30.09S
MILWAUKEE/TIMM CLEAR     70  61  73 CALM      30.08S
RACINE         CLEAR     74  69  85 S5        30.09S
6HR MIN TEMP:  72; 6HR MAX TEMP:  79;

BURLINGTON     CLEAR     65  65 100 CALM      30.08S
6HR MIN TEMP:  63; 6HR MAX TEMP:  80;

KENOSHA        CLEAR     74  66  76 SE5       30.08S
6HR MIN TEMP:  71; 6HR MAX TEMP:  80;

FOND DU LAC    CLEAR     69  63  81 S5        30.07R
6HR MIN TEMP:  69; 6HR MAX TEMP:  81;

SHEBOYGAN      CLEAR     65  65 100 CALM      30.08R FOG
6HR MIN TEMP:  63; 6HR MAX TEMP:  77;

WEST BEND        N/A     64  63  94 CALM      30.08R
JUNEAU         CLEAR     69  64  85 CALM      30.08S
6HR MIN TEMP:  69; 6HR MAX TEMP:  80;

$$

LSZ147-162-240700-
LAKE SUPERIOR

STATION/POSITION TIME  TEMP    WIND        PRES    WAVE
                       AIR SEA DIR/SP/G            HT/PER
                 (UTC) (F)     (DEG/KT/KT) (MB)    (FT/S)
W MID LAKE BUOY  0550   60 56  350/  6/  8 1015.1R   0
DEVILS ISLAND    0600   66      60/ 11/ 11 1014.7F
PORT WING        0440   70      70/  4/  8 1014.6
SAXON HARBOR     0530   69      CALM  /  3 1014.6R
$$

LMZ867-665-643>646-240700-
LAKE MICHIGAN

STATION/POSITION TIME  TEMP    WIND        PRES    WAVE
                       AIR SEA DIR/SP/G            HT/PER
                 (UTC) (F)     (DEG/KT/KT) (MB



USA.gov is the U.S. government's official web portal to all federal, state and local government web resources and services.